[[{"header":{"parameterUnit":"m.s-1","parameterCategory":1,"la1":30.2991,"la2":30.254,"lo1":-89.0895,"lo2":-89.0444,"dy":0.0017,"dx":0.0017,"nx":28,"ny":28,"refTime":"2024-06-27T21:00:00:Z","depth":0,"parameterNumber":2,"parameterNumberName":"U-component_of_WINDS"},"data":[0,0,0,0,0,0,0,0,0,0,0,0,0,0,0,0,0,0,0,0,0,0,0,0,0,0,0,0,0,0,0,0,0,0,0,0,0,0,0,0,0,0,0,0,0,0,0,0,0,0,0,0,0,0,0,0,0,0,1.6847,1.6849,0,1.7037,1.7039,1.7041,1.7106,1.7105,1.7104,1.7104,1.7301,1.7307,1.7313,0,0,0,0,0,0,0,0,0,0,0,0,0,1.6543,1.6548,1.6847,1.6849,1.6852,1.7037,1.7039,1.7042,1.7106,1.7105,1.7104,1.7103,1.7299,1.7306,1.7313,0,0,0,0,0,0,0,0,0,0,0,0,0,1.6698,1.655,1.6847,1.6906,1.6913,1.7036,1.7039,1.7043,1.7106,1.7105,1.7104,1.7103,1.7297,1.7305,1.7314,1.7393,0,0,1.7341,1.7345,0,0,0,0,0,0,0,0,1.6689,1.6709,1.6895,1.6902,1.691,1.7047,1.7005,1.716,1.7107,1.7033,1.7104,1.7102,1.7217,1.7233,1.7271,1.7402,1.741,1.7342,1.7348,1.7352,1.7354,0,0,0,0,0,0,0,1.6678,1.6701,1.6922,1.6898,1.6907,1.6924,1.6945,1.7034,1.7129,1.7039,1.7044,1.7066,1.7221,1.7262,1.7276,1.7413,1.7342,1.735,1.7355,1.7359,1.7621,1.7622,0,0,0,0,0,0,1.6657,1.6692,1.6916,1.6928,1.6795,1.6931,1.6954,1.7004,1.7129,1.7146,1.7067,1.7068,1.7247,1.7266,1.7283,1.7386,1.7351,1.736,1.7365,1.7619,1.7621,1.7623,0,0,0,0,0,0,1.665,1.6677,1.6909,1.6812,1.6842,1.6937,1.6993,1.7008,1.7049,1.7149,1.7167,1.7091,1.7247,1.7271,1.7365,1.7393,1.7364,1.7372,1.7617,1.762,1.7622,1.759,0,0,0,0,0,0,1.6641,1.6674,1.6704,1.6812,1.6847,1.6986,1.6995,1.7013,1.7064,1.7068,1.7177,1.7193,1.7248,1.7352,1.7374,1.7405,1.7379,1.7615,1.7619,1.7621,1.7589,1.7591,1.7592,0,0,0,0,0,1.663,1.6687,1.6705,1.6732,1.6887,1.6988,1.7008,1.7069,1.7066,1.7098,1.7162,1.719,1.7386,1.7361,1.7387,1.7421,1.7614,1.7618,1.7621,1.7588,1.759,1.7592,0,0,0,0,0,0,1.6581,1.6702,1.6724,1.6817,1.6891,1.6998,1.704,1.707,1.7147,1.7148,1.7221,1.7245,1.7335,1.7387,1.7357,1.7505,1.7502,1.7511,1.7467,1.7471,1.7472,1.7459,1.7386,0,0,0,0,0,1.6581,1.6652,1.6754,1.6827,1.6863,1.6945,1.6991,1.7032,1.7113,1.7145,1.7216,1.7294,1.7374,1.7425,1.7503,1.7596,1.7622,1.7632,1.7634,1.7635,1.7643,1.7698,1.7705,1.7635,1.7635,1.7635,0,0,1.6581,1.6656,1.6697,1.6819,1.6881,1.6955,1.6971,1.7048,1.7104,1.7157,1.7251,1.7306,1.7398,1.7493,1.7538,1.7539,1.7667,1.7639,1.7639,1.7647,1.7703,1.7709,1.7715,1.7637,1.7637,1.7636,0,0,1.6621,1.6683,1.6752,1.6814,1.6909,1.6963,1.6979,1.7082,1.7121,1.7216,1.7258,1.7326,1.746,1.7525,1.7576,1.764,1.7669,1.7663,1.7674,1.7727,1.7732,1.7738,1.7763,1.7771,1.767,1.767,1.767,0,1.661,1.6722,1.6783,1.6859,1.6912,1.6962,1.7033,1.7091,1.7206,1.7242,1.7241,1.7413,1.7478,1.759,1.7606,1.7644,1.7667,1.7652,1.7726,1.7732,1.7738,1.7764,1.7773,1.7669,1.7669,1.7669,1.7669,0,1.6705,1.6782,1.6825,1.6935,1.6993,1.7065,1.714,1.7191,1.7226,1.7281,1.7379,1.7459,1.7556,1.7584,1.762,1.7702,1.77,1.7712,1.7711,1.7743,1.7768,1.7778,1.7667,1.7667,1.7668,1.7668,0,0,1.672,1.6863,1.6879,1.693,1.7038,1.7099,1.7174,1.7268,1.7311,1.7389,1.7456,1.7569,1.7581,1.7638,1.7681,1.7727,1.7776,1.7734,1.7737,1.7741,1.7875,1.7868,1.7878,1.7795,1.7797,1.7799,1.7868,0,1.6776,1.6912,1.697,1.7079,1.7152,1.7201,1.7267,1.7341,1.7394,1.7465,1.7523,1.7604,1.7611,1.7647,1.7695,1.776,1.7805,1.7755,1.7861,1.7863,1.7839,1.7891,1.7883,1.7945,1.7878,1.788,1.7881,0,1.6859,1.6937,1.7054,1.7154,1.7187,1.7245,1.7337,1.7402,1.7488,1.7523,1.7587,1.7628,1.7711,1.7702,1.7819,1.7784,1.783,1.7869,1.7873,1.7887,1.7876,1.7909,1.7966,1.7976,1.7897,1.7896,1.7894,0,1.6862,1.6996,1.7084,1.7126,1.7244,1.7284,1.7336,1.742,1.7473,1.7553,1.7589,1.7677,1.7727,1.7795,1.786,1.7847,1.7971,1.7967,1.8005,1.8004,1.8032,1.803,1.8099,1.8056,1.8056,1.8056,1.8055,0,1.692,1.699,1.7087,1.7141,1.7222,1.7288,1.7367,1.7422,1.7496,1.7564,1.761,1.7673,1.7753,1.7826,1.7876,1.7967,1.7988,1.8021,1.8034,1.8019,1.8015,1.8052,1.8051,1.8058,1.8058,1.8057,1.8057,0,1.6938,1.7005,1.7105,1.7208,1.7236,1.7291,1.7381,1.7437,1.7491,1.7576,1.7599,1.7686,1.7775,1.7845,1.796,1.7995,1.8091,1.8104,1.8062,1.807,1.8105,1.8102,1.8204,1.8222,1.8163,1.8163,1.8164,0,1.6972,1.7027,1.7137,1.7185,1.7235,1.7312,1.7366,1.7433,1.7488,1.759,1.7634,1.7726,1.7803,1.7942,1.8017,1.8106,1.8124,1.8153,1.8138,1.8121,1.8129,1.8126,1.8133,1.8156,1.8156,1.8157,1.8157,0,1.7026,1.7057,1.7133,1.7221,1.7284,1.7357,1.7431,1.7468,1.7549,1.7608,1.7699,1.7759,1.7877,1.7968,1.8065,1.812,1.8154,1.816,1.8175,1.8161,1.8136,1.8154,1.807,1.8159,1.8159,1.8158,1.8158,1.8158,1.7056,1.7108,1.7194,1.7277,1.734,1.7408,1.7466,1.7527,1.7604,1.7705,1.7739,1.7833,1.7919,1.8053,1.8108,1.8184,1.8187,1.8207,1.8212,1.8217,1.8217,1.8121,1.8202,1.8202,1.8202,1.8202,1.8202,0,1.7116,1.7173,1.7249,1.7351,1.7417,1.7439,1.7523,1.7577,1.7659,1.7735,1.781,1.7916,1.8005,1.8085,1.8179,1.8224,1.8242,1.8247,1.8246,1.8259,1.8208,1.8188,1.8231,1.8231,1.8231,1.8231,1.8231,1.8231,1.7155,1.7245,1.7286,1.7408,1.7465,1.7557,1.7603,1.7667,1.7729,1.7844,1.7918,1.7969,1.8048,1.8148,1.8232,1.8253,1.8287,1.8289,1.8315,1.8266,1.8262,1.8259,1.8241,1.8295,1.8295,1.8361,1.8362,1.8362]},{"header":{"parameterUnit":"m.s-1","parameterCategory":1,"la1":30.2991,"la2":30.254,"lo1":-89.0895,"lo2":-89.0444,"dy":0.0017,"dx":0.0017,"nx":28,"ny":28,"refTime":"2024-06-27T21:00:00:Z","depth":0,"parameterNumber":3,"parameterNumberName":"V-component_of_WINDS"},"data":[0,0,0,0,0,0,0,0,0,0,0,0,0,0,0,0,0,0,0,0,0,0,0,0,0,0,0,0,0,0,0,0,0,0,0,0,0,0,0,0,0,0,0,0,0,0,0,0,0,0,0,0,0,0,0,0,0,0,1.1908,1.1908,0,1.1884,1.1884,1.1884,1.1871,1.1871,1.1871,1.1871,1.1846,1.1845,1.1845,0,0,0,0,0,0,0,0,0,0,0,0,0,1.1941,1.1941,1.1908,1.1908,1.1907,1.1884,1.1884,1.1884,1.1871,1.1871,1.1871,1.1871,1.1846,1.1845,1.1844,0,0,0,0,0,0,0,0,0,0,0,0,0,1.1923,1.1941,1.1908,1.1898,1.1897,1.1884,1.1884,1.1883,1.1871,1.1871,1.1871,1.1871,1.1846,1.1845,1.1844,1.1839,0,0,1.1841,1.1841,0,0,0,0,0,0,0,0,1.1924,1.1922,1.19,1.1899,1.1898,1.1881,1.1886,1.1868,1.1871,1.1881,1.1871,1.1871,1.1857,1.1855,1.1851,1.1838,1.1837,1.1841,1.1841,1.184,1.184,0,0,0,0,0,0,0,1.1925,1.1923,1.1898,1.19,1.1898,1.1895,1.1892,1.1883,1.187,1.188,1.1879,1.1877,1.1857,1.1852,1.185,1.1836,1.1841,1.184,1.184,1.1839,1.1817,1.1817,0,0,0,0,0,0,1.1928,1.1924,1.1899,1.1898,1.1911,1.1894,1.1891,1.1886,1.187,1.1867,1.1877,1.1876,1.1854,1.1852,1.1849,1.1842,1.184,1.1839,1.1839,1.1817,1.1817,1.1817,0,0,0,0,0,0,1.1929,1.1926,1.19,1.1911,1.1907,1.1894,1.1888,1.1886,1.1881,1.1867,1.1864,1.1874,1.1854,1.1851,1.1842,1.1841,1.1839,1.1838,1.1817,1.1817,1.1817,1.1826,0,0,0,0,0,0,1.193,1.1927,1.1925,1.1911,1.1907,1.1893,1.1888,1.1885,1.1879,1.1878,1.1864,1.1862,1.1853,1.1843,1.1841,1.1839,1.1837,1.1817,1.1817,1.1817,1.1826,1.1826,1.1827,0,0,0,0,0,1.1931,1.1928,1.1925,1.1922,1.1904,1.1893,1.1891,1.1881,1.1879,1.1877,1.1868,1.1862,1.1841,1.1842,1.1839,1.1838,1.1817,1.1817,1.1817,1.1826,1.1826,1.1827,0,0,0,0,0,0,1.1942,1.1926,1.1922,1.1914,1.1905,1.1891,1.1888,1.1882,1.1873,1.1873,1.1861,1.1858,1.185,1.1843,1.1844,1.1831,1.1828,1.1828,1.1836,1.1837,1.1837,1.1839,1.1836,0,0,0,0,0,1.1944,1.1937,1.1923,1.1917,1.1913,1.1901,1.1896,1.189,1.188,1.1876,1.1866,1.1856,1.1847,1.1842,1.1833,1.1825,1.1821,1.1822,1.1823,1.1823,1.1823,1.1818,1.1818,1.1817,1.1817,1.1817,0,0,1.1947,1.1937,1.1933,1.1919,1.1912,1.1904,1.1898,1.1891,1.1885,1.1874,1.1865,1.1858,1.1846,1.1837,1.1833,1.1831,1.1822,1.1823,1.1824,1.1823,1.1818,1.1818,1.1818,1.1817,1.1817,1.1817,0,0,1.1949,1.1941,1.1935,1.1927,1.1916,1.1908,1.1906,1.1893,1.1888,1.1878,1.187,1.1863,1.1848,1.184,1.1834,1.1832,1.1826,1.1829,1.1832,1.1827,1.1827,1.1827,1.1826,1.1826,1.1829,1.1829,1.1829,0,1.1954,1.1942,1.1933,1.1926,1.1919,1.191,1.1904,1.1897,1.1883,1.1878,1.1877,1.1857,1.1849,1.1838,1.1838,1.1833,1.1831,1.1831,1.1828,1.1828,1.1828,1.1827,1.1827,1.1829,1.1829,1.1829,1.1829,0,1.1949,1.1941,1.1938,1.1925,1.1918,1.1912,1.1901,1.1895,1.1889,1.1882,1.1872,1.1861,1.185,1.1847,1.1841,1.1835,1.1834,1.1831,1.1827,1.1829,1.1828,1.1827,1.183,1.183,1.183,1.183,0,0,1.1957,1.1938,1.1937,1.1931,1.1917,1.1911,1.1904,1.1893,1.1888,1.1879,1.1872,1.186,1.1856,1.1849,1.1842,1.1838,1.1837,1.1835,1.1834,1.1835,1.1829,1.1832,1.1832,1.1833,1.1833,1.1833,1.183,0,1.1956,1.1943,1.1934,1.1925,1.1917,1.1908,1.1902,1.1892,1.1885,1.1877,1.1869,1.186,1.1856,1.1852,1.1847,1.1838,1.1835,1.1838,1.1826,1.1826,1.1829,1.1831,1.1834,1.1832,1.183,1.183,1.183,0,1.1954,1.1945,1.1935,1.1921,1.1918,1.1913,1.1902,1.1894,1.1884,1.1878,1.1871,1.1863,1.1855,1.1853,1.1841,1.1843,1.1837,1.1832,1.1832,1.183,1.1828,1.1829,1.1831,1.1831,1.1829,1.1829,1.1829,0,1.196,1.1946,1.1937,1.1932,1.1917,1.1913,1.1906,1.1896,1.1889,1.188,1.1876,1.1865,1.1859,1.1851,1.1841,1.184,1.183,1.1827,1.1825,1.1825,1.1823,1.1823,1.1824,1.182,1.182,1.182,1.182,0,1.1961,1.1955,1.194,1.1935,1.1928,1.1917,1.191,1.1903,1.1893,1.1886,1.1878,1.1871,1.1859,1.185,1.1843,1.1834,1.1831,1.1826,1.1824,1.1827,1.1828,1.1823,1.1823,1.182,1.182,1.182,1.182,0,1.1966,1.1957,1.1947,1.1933,1.1929,1.1925,1.1913,1.1907,1.1899,1.189,1.1888,1.1875,1.1865,1.1854,1.1841,1.1835,1.1827,1.1824,1.1831,1.1829,1.1828,1.1828,1.1826,1.1825,1.1822,1.1822,1.1822,0,1.1967,1.1962,1.1948,1.1943,1.1936,1.1928,1.1922,1.1911,1.1905,1.1892,1.1888,1.1878,1.1869,1.1853,1.1842,1.1832,1.1828,1.1828,1.1827,1.183,1.1828,1.1828,1.1828,1.1829,1.1829,1.1829,1.1829,0,1.1969,1.1964,1.1956,1.1946,1.1939,1.193,1.1921,1.1917,1.1905,1.1898,1.1888,1.1881,1.1867,1.1857,1.1845,1.1837,1.1831,1.183,1.1829,1.1831,1.1835,1.1833,1.1832,1.183,1.183,1.183,1.1829,1.1829,1.1972,1.1967,1.1956,1.1947,1.1939,1.1931,1.1925,1.1917,1.1908,1.1896,1.189,1.188,1.1869,1.1852,1.1845,1.1837,1.1835,1.1833,1.1833,1.1833,1.1833,1.1837,1.1834,1.1834,1.1834,1.1834,1.1834,0,1.1974,1.1966,1.1958,1.1945,1.1938,1.1933,1.1923,1.1917,1.1908,1.1898,1.189,1.1878,1.1868,1.1856,1.1845,1.184,1.1837,1.1838,1.1838,1.1836,1.1836,1.1838,1.1841,1.1841,1.1841,1.1841,1.1841,1.1841,1.1973,1.1965,1.1959,1.1946,1.1939,1.1929,1.1923,1.1916,1.1908,1.1895,1.1886,1.1879,1.1869,1.1857,1.1847,1.1844,1.184,1.1841,1.1837,1.1837,1.1836,1.1836,1.1838,1.1841,1.1841,1.1839,1.1839,1.1839]}]]